Find Starlink 11537

NORAD ID: 62911 Int'l Des: 2025-027 Owner: SPXS Country: US Constellation: starlink operational
LEOCIRCULAR

リアルタイム位置

3D地球を読み込み中...

Starlink 11537について

説明を読み込み中...

次回通過

Passes for default location (London). Set your location on the main map for personalized predictions.

高度履歴

Loading altitude history...

軌道要素

1 62911U 25027E 26125.03664889 .00200747 00000-0 15237-2 0 9995
2 62911 43.0001 8.0572 0002849 254.1809 105.8744 15.70943198 72053
Epoch: May 5, 2026 • Age: 17 hours

現在のステータス

高度 356.5 km
速度 7.70 km/s
衛星直下点 -7.74°S, 132.31°W
打ち上げ日 Feb 8, 2025
運用期間 1.2 years
タイプ internet

技術仕様

分類 Payload
質量 960.00 kg
乾燥質量 910.00 kg
総質量 960.00 kg
長さ 0.30 m
直径 4.10 m
スパン 29.00 m
形状 Box + pan
製造者 SPXS
バスタイプ Starlink V2MD
フェーズステータス In Orbit
所有者/国 SPXS/US

Most Searched